Location: Bratislava
(0.0000°N, 17.1167°E)
Time: 03:54:04
(UTC+01:00)

Meteor 2-21 Rocket - Pass Details

Date: 24 January 2021
Orbit: 936 x 967 km, 82.6° (Epoch: 06 March)

Event Time Altitude Azimuth Distance (km) Brightness Sun altitude
Rises 19:28:11 0° 182° (S) 3,593 7.8 -19.9°
Reaches altitude 10° 19:30:40 10° 181° (S) 2,646 7.0 -20.5°
Maximum altitude 19:36:43 82° 94° (E) 949 4.3 -21.9°
Enters shadow 19:41:08 19° 7° (N) 2,045 5.9 -22.9°
